{"data":{"norad_id":53421,"epoch":"2026-09-19T18:11:37.305024Z","epoch_age_seconds":139246,"freshness":"FRESH","line1":"1 53421U 22097AK  26262.75807066  .00000149  00000+0  16569-4 0  9996","line2":"2 53421  53.1604 310.2901 0001145  77.7931 282.3199 15.31704319228096","mean_motion":15.31704319,"eccentricity":0.0001145,"inclination_deg":53.1604,"raan_deg":310.2901,"arg_perigee_deg":77.7931,"mean_anomaly_deg":282.3199,"bstar":1.6569e-5,"rev_number":22809,"period_min":94.012922868829,"perigee_km":469.94292559984,"apogee_km":471.51131548345,"semimajor_km":6848.8641205416,"source":"CELESTRAK","updated_at":"2026-09-20T09:00:40.229905Z"}}